Weather History for KOTH - May, 2014

Change the Weather History Date:

Sunday, May 18, 2014

  Actual Average Record
Temperature  
Mean Temperature 59 °F 53 °F  
Max Temperature 63 °F 59 °F 76 °F (1926)
Min Temperature 54 °F 47 °F 35 °F (1909)
Degree Days  
Heating Degree Days 6 12  
Month to date heating degree days 148 231  
Since 1 July heating degree days 3781 4417  
Cooling Degree Days 0 0  
Month to date cooling degree days 4 0  
Year to date cooling degree days 12 0  
Growing Degree Days 8 (Base 50)    
Moisture  
Dew Point 54 °F    
Average Humidity 89    
Maximum Humidity 100    
Minimum Humidity 72    
Precipitation  
Precipitation 0.16 in 0.10 in 0.82 in (1953)
Month to date precipitation 1.72 2.03  
Year to date precipitation 21.34 32.81  
Sea Level Pressure  
Sea Level Pressure 29.97 in    
Wind  
Wind Speed 11 mph (SW)    
Max Wind Speed 20 mph    
Max Gust Speed 25 mph    
Visibility 10 miles    
Events      
T = Trace of Precipitation, MM = Missing Value Source: NWS Daily Summary

Daily Weather History Graph

Daily Weather History Graph

Search for Another Location

Airport or City:

Trip Planner

Search our weather history database for the weather conditions in past years. The results will help you decide how hot, cold, wet, or windy it might be!

Date:

Astronomy

May. 18, 2014 Rise Set
Actual Time 5:49 AM PDT 8:38 PM PDT
Civil Twilight 5:16 AM PDT 9:11 PM PDT
Nautical Twilight 4:34 AM PDT 9:53 PM PDT
Astronomical Twilight 3:45 AM PDT 10:42 PM PDT
Moon No Moon Rise 9:46 AM PDT (5/18)
Length of Visible Light 15h 55m
Length of Day
14h 48m
Waning Gibbous, 80% of the Moon is Illuminated
May 18
Waning Gibbous
May 21
Last Quarter
May 28
New
Jun 5
First Quarter
Jun 12
Full

Hourly Weather History & Observations

Time (PDT) Temp. Dew Point Humidity Pressure Visibility Wind Dir Wind Speed Gust Speed Precip Events Conditions
12:15 AM 55.4 °F 55.4 °F 100% 29.95 in 10.0 mi South 8.1 mph - N/A   Overcast
12:35 AM 55.4 °F 55.4 °F 100% 29.95 in 10.0 mi South 6.9 mph - N/A   Overcast
12:55 AM 55.4 °F 55.4 °F 100% 29.95 in 10.0 mi South 8.1 mph - N/A   Overcast
1:15 AM 55.4 °F 55.4 °F 100% 29.95 in 10.0 mi South 8.1 mph - N/A   Overcast
1:35 AM 55.4 °F 55.4 °F 100% 29.95 in 10.0 mi SSW 8.1 mph - N/A   Mostly Cloudy
1:55 AM 55.4 °F 55.4 °F 100% 29.94 in 10.0 mi South 9.2 mph - N/A   Overcast
2:15 AM 55.4 °F 55.4 °F 100% 29.94 in 10.0 mi South 9.2 mph - N/A   Overcast
2:35 AM 55.4 °F 55.4 °F 100% 29.93 in 10.0 mi South 8.1 mph - 0.01 in   Overcast
2:55 AM 55.4 °F 55.4 °F 100% 29.94 in 8.0 mi SSW 8.1 mph - 0.02 in   Overcast
3:15 AM 55.4 °F 55.4 °F 100% 29.94 in 10.0 mi SSW 5.8 mph - 0.01 in   Overcast
3:35 AM 55.4 °F 55.4 °F 100% 29.94 in 10.0 mi WSW 8.1 mph - 0.01 in   Mostly Cloudy
3:55 AM 55.4 °F 55.4 °F 100% 29.94 in 10.0 mi WSW 5.8 mph - 0.01 in   Scattered Clouds
4:15 AM 55.4 °F 55.4 °F 100% 29.94 in 10.0 mi WSW 4.6 mph - N/A   Mostly Cloudy
4:35 AM 55.4 °F 55.4 °F 100% 29.94 in 10.0 mi WSW 6.9 mph - N/A   Mostly Cloudy
4:55 AM 55.4 °F 55.4 °F 100% 29.94 in 10.0 mi WSW 6.9 mph - N/A   Overcast
5:15 AM 55.4 °F 53.6 °F 94% 29.94 in 10.0 mi West 9.2 mph - N/A   Overcast
5:35 AM 55.4 °F 55.4 °F 100% 29.94 in 10.0 mi West 10.4 mph - N/A   Overcast
5:55 AM 55.4 °F 55.4 °F 100% 29.94 in 10.0 mi West 11.5 mph - N/A   Overcast
6:15 AM 55.4 °F 53.6 °F 94% 29.95 in 10.0 mi West 8.1 mph - N/A   Overcast
6:35 AM 55.4 °F 53.6 °F 94% 29.95 in 7.0 mi West 8.1 mph - 0.02 in   Overcast
6:55 AM 55.4 °F 55.4 °F 100% 29.95 in 10.0 mi West 8.1 mph - 0.02 in   Mostly Cloudy
7:15 AM 55.4 °F 53.6 °F 94% 29.95 in 10.0 mi West 5.8 mph - N/A   Overcast
7:35 AM 55.4 °F 55.4 °F 100% 29.96 in 10.0 mi WSW 5.8 mph - 0.01 in   Overcast
7:55 AM 57.2 °F 55.4 °F 94% 29.96 in 10.0 mi SW 8.1 mph - 0.01 in   Overcast
8:15 AM 57.2 °F 55.4 °F 94% 29.96 in 7.0 mi West 10.4 mph - 0.03 in   Overcast
8:35 AM 55.4 °F 55.4 °F 100% 29.97 in 10.0 mi West 6.9 mph - 0.03 in   Overcast
8:55 AM 57.2 °F 55.4 °F 94% 29.97 in 10.0 mi WSW 11.5 mph - 0.03 in   Overcast
9:15 AM 57.2 °F 55.4 °F 94% 29.97 in 10.0 mi WSW 11.5 mph - N/A   Overcast
9:35 AM 59.0 °F 55.4 °F 88% 29.97 in 10.0 mi West 15.0 mph - N/A   Overcast
9:55 AM 59.0 °F 55.4 °F 88% 29.97 in 10.0 mi WSW 10.4 mph - N/A   Overcast
10:15 AM 57.2 °F 53.6 °F 88% 29.97 in 10.0 mi WSW 13.8 mph - N/A   Mostly Cloudy
10:35 AM 59.0 °F 53.6 °F 82% 29.97 in 10.0 mi WSW 11.5 mph - N/A   Scattered Clouds
10:55 AM 60.8 °F 53.6 °F 77% 29.98 in 10.0 mi WSW 16.1 mph - N/A   Mostly Cloudy
11:15 AM 60.8 °F 55.4 °F 82% 29.98 in 10.0 mi WSW 17.3 mph - N/A   Overcast
11:35 AM 60.8 °F 55.4 °F 82% 29.98 in 10.0 mi WSW 16.1 mph 19.6 mph N/A   Mostly Cloudy
11:55 AM 62.6 °F 55.4 °F 77% 29.98 in 10.0 mi WSW 16.1 mph 21.9 mph N/A   Mostly Cloudy
12:15 PM 60.8 °F 51.8 °F 72% 29.99 in 10.0 mi WSW 13.8 mph 20.7 mph N/A   Overcast
12:35 PM 60.8 °F 53.6 °F 77% 29.99 in 10.0 mi WSW 12.7 mph - N/A   Overcast
12:55 PM 60.8 °F 55.4 °F 82% 29.98 in 10.0 mi WSW 12.7 mph 18.4 mph N/A   Overcast
1:15 PM 60.8 °F 55.4 °F 82% 29.99 in 10.0 mi WSW 10.4 mph 20.7 mph N/A   Mostly Cloudy
1:35 PM 60.8 °F 53.6 °F 77% 29.99 in 10.0 mi WSW 12.7 mph 21.9 mph N/A   Overcast
1:55 PM 60.8 °F 53.6 °F 77% 29.99 in 10.0 mi WSW 16.1 mph 19.6 mph N/A   Mostly Cloudy
2:15 PM 60.8 °F 53.6 °F 77% 29.99 in 10.0 mi West 17.3 mph 23.0 mph N/A   Overcast
2:35 PM 60.8 °F 53.6 °F 77% 29.99 in 10.0 mi WSW 15.0 mph 21.9 mph N/A   Mostly Cloudy
2:55 PM 62.6 °F 53.6 °F 72% 29.99 in 10.0 mi West 18.4 mph 21.9 mph N/A   Mostly Cloudy
3:15 PM 60.8 °F 53.6 °F 77% 29.99 in 10.0 mi West 16.1 mph - N/A   Mostly Cloudy
3:35 PM 60.8 °F 53.6 °F 77% 29.99 in 10.0 mi West 17.3 mph 24.2 mph N/A   Mostly Cloudy
3:55 PM 59.0 °F 53.6 °F 82% 29.98 in 10.0 mi WSW 19.6 mph 23.0 mph N/A   Mostly Cloudy
4:15 PM 60.8 °F 53.6 °F 77% 29.99 in 10.0 mi WSW 15.0 mph 19.6 mph N/A   Overcast
4:35 PM 60.8 °F 53.6 °F 77% 29.98 in 10.0 mi WSW 16.1 mph 23.0 mph N/A   Mostly Cloudy
4:55 PM 59.0 °F 51.8 °F 77% 29.99 in 10.0 mi WSW 11.5 mph 20.7 mph N/A   Overcast
5:15 PM 59.0 °F 51.8 °F 77% 29.99 in 10.0 mi WSW 16.1 mph 19.6 mph N/A   Overcast
5:35 PM 60.8 °F 53.6 °F 77% 29.99 in 10.0 mi WSW 9.2 mph 18.4 mph N/A   Overcast
5:55 PM 59.0 °F 51.8 °F 77% 29.99 in 10.0 mi SW 11.5 mph 17.3 mph N/A   Overcast
6:15 PM 59.0 °F 51.8 °F 77% 29.98 in 10.0 mi SW 15.0 mph 23.0 mph N/A   Overcast
6:35 PM 59.0 °F 51.8 °F 77% 29.98 in 10.0 mi WSW 11.5 mph - N/A   Overcast
6:55 PM 59.0 °F 51.8 °F 77% 29.98 in 10.0 mi WSW 11.5 mph 18.4 mph N/A   Overcast
7:15 PM 57.2 °F 51.8 °F 82% 29.98 in 10.0 mi SW 11.5 mph - N/A   Mostly Cloudy
7:35 PM 57.2 °F 51.8 °F 82% 29.98 in 10.0 mi SSW 11.5 mph - N/A   Mostly Cloudy
7:55 PM 55.4 °F 51.8 °F 88% 29.98 in 5.0 mi SW 12.7 mph 25.3 mph 0.01 in   Overcast
8:15 PM 53.6 °F 51.8 °F 94% 29.97 in 9.0 mi SSW 10.4 mph 18.4 mph N/A   Mostly Cloudy
8:35 PM 53.6 °F 53.6 °F 100% 29.97 in 10.0 mi South 8.1 mph - N/A   Overcast
8:55 PM 53.6 °F 53.6 °F 100% 29.97 in 10.0 mi South 4.6 mph - N/A   Overcast
9:15 PM 55.4 °F 53.6 °F 94% 29.97 in 10.0 mi SSW 3.5 mph - N/A   Overcast
9:35 PM 53.6 °F 51.8 °F 94% 29.98 in 7.0 mi South 10.4 mph - 0.03 in   Mostly Cloudy
9:55 PM 53.6 °F 51.8 °F 94% 29.98 in 10.0 mi SSE 8.1 mph - 0.03 in   Overcast
10:15 PM 53.6 °F 53.6 °F 100% 29.99 in 10.0 mi SSW 4.6 mph - 0.01 in   Overcast
10:35 PM 53.6 °F 51.8 °F 94% 29.99 in 10.0 mi South 3.5 mph - 0.02 in   Overcast
10:55 PM 53.6 °F 51.8 °F 94% 29.98 in 10.0 mi South 6.9 mph - 0.02 in   Overcast
11:15 PM 53.6 °F 51.8 °F 94% 29.98 in 10.0 mi South 6.9 mph - N/A   Overcast
11:35 PM 53.6 °F 53.6 °F 100% 29.98 in 10.0 mi South 8.1 mph - N/A   Overcast
11:55 PM 53.6 °F 51.8 °F 94% 29.98 in 9.0 mi South 6.9 mph - N/A   Mostly Cloudy